Location: Invercargill
(46.4000°S, 168.3500°E)
Time: 04:39:33
(UTC+13:00)

Cosmos 1328 Rocket - Pass Details

Date: 24 January 2019
Orbit: 602 x 627 km, 82.5° (Epoch: 18 February)

Event Time Altitude Azimuth Distance (km) Brightness Sun altitude
Rises 22:35:02 0° 340° (NNW) 2,902 6.8 -9.9°
Reaches altitude 10° 22:37:18 10° 335° (NNW) 2,007 6.0 -10.2°
Maximum altitude 22:41:39 52° 257° (WSW) 792 4.5 -10.8°
Drops below altitude 10° 22:46:06 10° 180° (S) 2,043 6.9 -11.3°
Sets 22:48:25 0° 175° (S) 2,960 7.7 -11.6°
